Date String (YYYY-MM-DD hh:mm:ss) UTC,Instrument flags,absolute air pressure of the measurement (hPa),sample flow rate (lpm),inlet stack bypass flow (lpm),air temperature of the measurement (°C),ambient temperature measured by the external sensor (°C),aerosol sample conditioner tube jacket temperature (°C),OPC LED temperature (°C),internal box temperature (°C),relative humidity of the measurement (%),span deviation,mass concentration of particles derived from Lorenz-Mie calculation of OPC scattering (μg/m³),mass concentration of particles derived from Lorenz-Mie calculation of OPC scattering (μg/m³),mass concentration of particles derived from Lorenz-Mie calculation of OPC scattering (μg/m³)
DateTimeUTC,F1_M11,P_M11,Q1_M11,Q2_M11,T1_M11,T2_M11,T3_M11,T4_M11,T5_M11,U1_M11,ZSPAN_M11,X0_M11,X2_M11,X1_M11
2023-12-16 05:00:00,SystemResetWarning,0836.1,5.00,000.00,020.9,019.9,000.0,029.3,022.3,9.8,0000.0,0002.33,0001.43,0001.14
2023-12-16 05:01:00,SystemResetWarning,0836.1,4.99,000.00,020.9,019.9,000.0,029.3,022.2,9.7,0000.0,0002.31,0001.45,0001.16
2023-12-16 05:02:00,SystemResetWarning,0836.1,5.00,000.00,020.9,019.9,000.0,029.3,022.2,9.5,0000.0,0002.11,0001.43,0001.17
2023-12-16 05:03:00,SystemResetWarning,0836.1,5.00,000.00,020.9,019.9,000.0,029.3,022.2,9.5,0000.0,0002.07,0001.43,0001.17
2023-12-16 05:04:00,SystemResetWarning,0836.1,5.00,000.00,020.9,019.9,000.0,029.3,022.2,9.5,0000.0,0002.00,0001.39,0001.17
2023-12-16 05:05:00,SystemResetWarning,0836.1,5.00,000.00,020.9,019.9,000.0,029.3,022.2,9.7,0000.0,0001.97,0001.38,0001.16
2023-12-16 05:06:00,SystemResetWarning,0836.1,4.99,000.00,020.9,019.9,000.0,029.3,022.2,9.8,0000.0,0001.93,0001.34,0001.15
2023-12-16 05:07:00,SystemResetWarning,0836.1,5.00,000.00,020.9,019.9,000.0,029.3,022.2,10.1,0000.0,0001.92,0001.35,0001.14
2023-12-16 05:08:00,SystemResetWarning,0836.1,5.00,000.00,020.9,019.9,000.0,029.3,022.2,10.2,0000.0,0001.78,0001.33,0001.15
2023-12-16 05:09:00,SystemResetWarning,0836.1,5.01,000.00,020.9,019.9,000.0,029.3,022.2,10.2,0000.0,0001.69,0001.30,0001.16
2023-12-16 05:10:00,SystemResetWarning,0836.0,5.01,000.00,020.9,019.8,000.0,029.3,022.2,10.2,0000.0,0001.69,0001.28,0001.13
2023-12-16 05:11:00,SystemResetWarning,0836.0,4.99,000.00,020.9,019.8,000.0,029.3,022.1,9.9,0000.0,0001.73,0001.26,0001.11
2023-12-16 05:12:00,SystemResetWarning,0836.0,4.99,000.00,020.8,019.8,000.0,029.3,022.1,9.8,0000.0,0002.24,0001.25,0001.09
2023-12-16 05:13:00,SystemResetWarning,0835.9,5.00,000.00,020.8,019.8,000.0,029.2,022.1,9.7,0000.0,0002.27,0001.26,0001.07
2023-12-16 05:14:00,SystemResetWarning,0835.9,5.01,000.00,020.8,019.8,000.0,029.2,022.1,9.7,0000.0,0002.31,0001.27,0001.06
2023-12-16 05:15:00,SystemResetWarning,0835.9,5.00,000.00,020.8,019.8,000.0,029.2,022.1,9.7,0000.0,0002.33,0001.29,0001.06
2023-12-16 05:16:00,SystemResetWarning,0835.9,5.01,000.00,020.8,019.8,000.0,029.2,022.0,9.7,0000.0,0002.35,0001.30,0001.06
2023-12-16 05:17:00,SystemResetWarning,0835.9,5.00,000.00,020.8,019.7,000.0,029.2,022.0,9.8,0000.0,0002.48,0001.31,0001.06
2023-12-16 05:18:00,SystemResetWarning,0835.9,4.99,000.00,020.8,019.7,000.0,029.2,021.9,9.8,0000.0,0002.74,0001.32,0001.07
2023-12-16 05:19:00,SystemResetWarning,0835.9,4.99,000.00,020.7,019.7,000.0,029.2,022.0,9.8,0000.0,0002.96,0001.35,0001.07
2023-12-16 05:20:00,SystemResetWarning,0835.9,5.00,000.00,020.7,019.7,000.0,029.2,022.0,9.7,0000.0,0003.28,0001.37,0001.07
2023-12-16 05:21:00,SystemResetWarning,0835.9,5.01,000.00,020.7,019.6,000.0,029.2,022.0,9.7,0000.0,0003.70,0001.36,0001.07
2023-12-16 05:22:00,SystemResetWarning,0835.9,5.00,000.00,020.7,019.5,000.0,029.2,022.0,9.7,0000.0,0004.18,0001.36,0001.06
2023-12-16 05:23:00,SystemResetWarning,0835.9,5.01,000.00,020.7,019.5,000.0,029.1,021.9,9.8,0000.0,0003.66,0001.37,0001.06
2023-12-16 05:24:00,SystemResetWarning,0835.9,5.00,000.00,020.7,019.5,000.0,029.1,021.9,9.8,0000.0,0004.58,0001.35,0001.06
2023-12-16 05:25:00,SystemResetWarning,0835.9,5.00,000.00,020.6,019.4,000.0,029.1,021.9,9.8,0000.0,0005.61,0001.33,0001.05
2023-12-16 05:26:00,SystemResetWarning,0835.9,5.00,000.00,020.6,019.4,000.0,029.1,021.9,9.9,0000.0,0005.62,0001.31,0001.05
2023-12-16 05:27:00,SystemResetWarning,0835.9,4.99,000.00,020.6,019.4,000.0,029.1,021.9,9.9,0000.0,0005.78,0001.33,0001.04
2023-12-16 05:28:00,SystemResetWarning,0835.9,5.00,000.00,020.6,019.4,000.0,029.1,021.9,9.9,0000.0,0005.79,0001.36,0001.05
2023-12-16 05:29:00,SystemResetWarning,0835.9,5.00,000.00,020.6,019.4,000.0,029.0,021.8,9.9,0000.0,0005.54,0001.34,0001.04
2023-12-16 05:30:00,SystemResetWarning,0835.8,4.99,000.00,020.6,019.4,000.0,029.0,021.8,9.9,0000.0,0005.33,0001.30,0001.04
2023-12-16 05:31:00,SystemResetWarning,0835.8,5.01,000.00,020.5,019.3,000.0,029.0,021.8,9.8,0000.0,0004.97,0001.28,0001.04
2023-12-16 05:32:00,SystemResetWarning,0835.8,5.01,000.00,020.5,019.3,000.0,029.0,021.8,9.8,0000.0,0004.59,0001.26,0001.04
2023-12-16 05:33:00,SystemResetWarning,0835.8,5.00,000.00,020.5,019.4,000.0,029.0,021.7,9.8,0000.0,0004.16,0001.28,0001.05
2023-12-16 05:34:00,SystemResetWarning,0835.8,4.99,000.00,020.5,019.4,000.0,029.0,021.7,9.8,0000.0,0005.17,0001.31,0001.06
2023-12-16 05:35:00,SystemResetWarning,0835.8,4.99,000.00,020.5,019.4,000.0,029.0,021.7,9.8,0000.0,0005.36,0001.30,0001.07
2023-12-16 05:36:00,SystemResetWarning,0835.8,5.00,000.00,020.5,019.4,000.0,028.9,021.7,9.8,0000.0,0003.97,0001.30,0001.08
2023-12-16 05:37:00,SystemResetWarning,0835.8,5.00,000.00,020.5,019.4,000.0,028.9,021.7,9.7,0000.0,0004.31,0001.30,0001.08
2023-12-16 05:38:00,SystemResetWarning,0835.8,5.01,000.00,020.4,019.4,000.0,028.9,021.7,9.6,0000.0,0004.19,0001.30,0001.07
2023-12-16 05:39:00,SystemResetWarning,0835.8,5.00,000.00,020.4,019.4,000.0,028.9,021.7,9.5,0000.0,0004.16,0001.31,0001.07
2023-12-16 05:40:00,SystemResetWarning,0835.7,4.99,000.00,020.4,019.4,000.0,028.9,021.7,9.5,0000.0,0004.09,0001.30,0001.07
2023-12-16 05:41:00,SystemResetWarning,0835.7,4.99,000.00,020.4,019.4,000.0,028.9,021.7,9.5,0000.0,0004.12,0001.29,0001.06
2023-12-16 05:42:00,SystemResetWarning,0835.7,5.00,000.00,020.4,019.4,000.0,028.9,021.7,9.6,0000.0,0004.20,0001.30,0001.04
2023-12-16 05:43:00,SystemResetWarning,0835.7,5.00,000.00,020.4,019.4,000.0,028.9,021.7,9.7,0000.0,0004.25,0001.33,0001.03
2023-12-16 05:44:00,SystemResetWarning,0835.8,5.00,000.00,020.4,019.3,000.0,028.9,021.6,9.8,0000.0,0004.27,0001.32,0001.02
2023-12-16 05:45:00,SystemResetWarning,0835.8,5.00,000.00,020.4,019.3,000.0,028.8,021.7,9.7,0000.0,0003.58,0001.27,0001.00
2023-12-16 05:46:00,SystemResetWarning,0835.8,5.00,000.00,020.4,019.3,000.0,028.8,021.6,9.6,0000.0,0002.56,0001.26,0000.99
2023-12-16 05:47:00,SystemResetWarning,0835.8,5.00,000.00,020.4,019.3,000.0,028.8,021.6,9.6,0000.0,0002.61,0001.28,0000.99
2023-12-16 05:48:00,SystemResetWarning,0835.7,5.00,000.00,020.3,019.3,000.0,028.8,021.6,9.6,0000.0,0001.96,0001.28,0001.00
2023-12-16 05:49:00,SystemResetWarning,0835.8,5.00,000.00,020.3,019.3,000.0,028.8,021.6,9.7,0000.0,0002.13,0001.28,0001.00
2023-12-16 05:50:00,SystemResetWarning,0835.7,5.00,000.00,020.3,019.3,000.0,028.8,021.6,9.7,0000.0,0002.19,0001.26,0000.99
2023-12-16 05:51:00,SystemResetWarning,0835.8,5.00,000.00,020.3,019.2,000.0,028.8,021.6,9.6,0000.0,0002.21,0001.26,0000.98
2023-12-16 05:52:00,SystemResetWarning,0835.7,5.00,000.00,020.3,019.2,000.0,028.8,021.5,9.6,0000.0,0002.20,0001.28,0000.98
2023-12-16 05:53:00,SystemResetWarning,0835.7,5.00,000.00,020.3,019.2,000.0,028.8,021.6,9.6,0000.0,0002.17,0001.27,0000.97
2023-12-16 05:54:00,SystemResetWarning,0835.7,5.00,000.00,020.3,019.2,000.0,028.7,021.6,9.7,0000.0,0002.19,0001.25,0000.97
2023-12-16 05:55:00,SystemResetWarning,0835.6,5.00,000.00,020.3,019.2,000.0,028.7,021.5,9.7,0000.0,0002.13,0001.22,0000.96
2023-12-16 05:56:00,SystemResetWarning,0835.7,5.01,000.00,020.2,019.2,000.0,028.7,021.5,9.6,0000.0,0002.18,0001.24,0000.96
2023-12-16 05:57:00,SystemResetWarning,0835.8,5.01,000.00,020.2,019.2,000.0,028.7,021.5,9.6,0000.0,0002.17,0001.23,0000.94
2023-12-16 05:58:00,SystemResetWarning,0835.6,5.00,000.00,020.2,019.1,000.0,028.7,021.5,9.6,0000.0,0002.15,0001.23,0000.92
2023-12-16 05:59:00,SystemResetWarning,0835.6,5.00,000.00,020.2,019.1,000.0,028.7,021.4,9.6,0000.0,0002.12,0001.21,0000.90
